CAPE
265 810 1000 738 837 612 558 916 1060 915 835 1194 1170 1104 1411 1120 1000 722 630 749 1407 1350 989 951 1196 1759 1439 1326 1324 1618 1272 1200 1906 2157 2250 2314 2238 2441 2340 2001 1980 2108 2820
340 785 1137 781 1029 669 702 1038 781 1003 896 842 983 1149 1298 495 677 566 751 652 978 1034 808 1180 1652 1812 1658 1410 1208 1346 1404 1761 1782 1975 1677 1906 2340 2398 2394 1966 2055 2468 2764
180 795 1219 1041 892 735 1039 999 816 681 913 926 934 960 1398 1146 1069 932 1229 1431 1429 837 851 890 801 841 936 1170 1237 1354 1567 1669 1939 1463 1571 1504 1891 2203 2453 2429 2337 2638 2663
134 850 1118 817 769 668 712 967 758 418 207 171 598 1020 776 869 1326 1276 1127 1103 1275 1347 1218 1375 1542 1488 1631 1504 1414 1338 1239 1406 1088 1204 818 1104 1513 2008 2320 2368 2494 2619 2581
602 930 1129 1122 743 511 601 540 751 250 178 2 28 174 1054 998 437 691 901 1192 1242 1189 1120 1274 1159 1226 988 777 759 884 889 1057 977 1376 1372 1072 1323 1394 1961 2051 2164 2175 2327
729 923 782 1013 680 546 699 340 245 161 69 0 175 845 506 491 723 680 669 755 1041 768 631 848 886 765 657 710 580 790 817 1030 1266 1219 1795 1220 1236 1370 1917 1716 1438 1960 1886
573 895 749 648 645 506 109 62 265 120 183 163 633 288 447 723 737 1118 1241 664 631 630 635 792 801 861 891 666 703 1100 1236 891 1070 1070 1339 1469 1648 1566 2118 1964 1959 1872 1715
609 790 479 401 207 22 0 30 271 0 69 139 676 864 1057 937 926 1050 1173 1304 954 844 739 710 801 939 789 830 844 1073 1255 1009 936 872 1220 1513 808 1145 1714 1731 1826 1751 1784
334 525 658 482 113 6 147 93 70 160 201 252 698 1129 1017 1051 1112 1264 1255 1074 1016 1005 973 933 891 953 766 833 869 986 1223 1236 1205 1426 947 897 447 590 959 1574 1426 1441 1449
142 375 466 493 430 110 0 0 170 178 314 589 1343 1365 1095 1138 782 495 810 1535 1386 1382 1397 1420 1118 702 648 858 829 908 983 1351 1398 1542 1443 1146 783 951 1236 1479 1647 1662 1805
46 91 291 389 334 159 0 4 3 398 889 592 631 492 388 236 406 703 742 1320 1621 1663 1385 1475 1108 898 1110 1286 1013 1111 1114 583 384 438 674 605 1140 1409 1596 1859 1688 1660 2170
18 80 265 376 272 177 23 40 440 581 277 446 225 289 158 375 716 432 462 560 360 523 797 1226 1432 1553 1015 1309 1541 1000 749 314 317 209 444 497 1055 1608 1859 1796 1968 2212 2397
33 110 304 306 203 126 81 143 255 174 102 368 836 419 373 609 476 309 502 545 1330 1174 1582 1188 1423 1665 1292 1318 1041 684 118 108 118 157 296 425 1057 1609 1954 1752 1557 1601 2179
55 105 203 197 157 53 84 39 365 175 286 227 605 880 920 531 571 524 799 1234 1719 1598 1762 1662 1211 1465 1030 711 458 342 22 210 201 428 487 472 1011 1349 1415 1366 1386 1506 1977
57 48 86 97 141 117 33 245 539 453 540 378 516 1424 685 367 727 610 1000 1264 1447 1820 1644 1775 1654 1603 1233 636 641 867 360 477 419 557 595 580 903 1213 1299 1401 1391 1714 1799
34 40 80 39 129 93 25 716 737 862 444 697 557 1055 1459 1122 1103 665 1061 1097 1147 1618 1805 1820 1956 1769 1601 918 1148 524 332 307 807 906 1054 1307 816 1110 1244 1355 1471 1732 1456
52 7 2 5 44 99 90 369 686 470 769 623 530 940 914 993 1118 962 724 908 1125 1610 2160 2206 2081 1958 1284 967 823 734 631 743 943 1580 1501 1429 1614 1316 1132 1375 1459 1271 932
11 0 0 0 0 17 82 135 377 495 796 614 413 600 694 437 655 1012 608 720 709 1591 1838 1773 1809 1575 1440 787 462 772 696 846 835 1384 1352 1539 1662 1663 1390 1365 1326 1414 1343
1 0 0 0 0 12 6 84 635 911 695 571 434 691 1024 849 381 609 415 502 892 1374 1580 1539 1765 1286 980 558 426 491 474 721 330 733 1041 1635 1690 1490 1634 1438 1084 905 1336
0 0 0 0 15 70 62 618 733 538 398 776 678 770 1317 564 201 554 368 434 674 577 1546 1723 1778 1252 834 784 301 330 353 910 922 827 748 1318 1742 1720 1429 1800 1575 1256 480
0 0 0 12 40 61 227 587 492 138 407 835 772 1526 1351 1332 1186 803 316 338 564 450 1776 2132 1552 1425 1167 991 841 479 570 779 593 946 1414 1430 1633 1153 1485 1771 1482 1374 1023
0 0 0 20 82 280 605 938 831 777 607 865 821 1480 1319 969 1424 966 639 650 516 1014 2058 2095 1982 1197 1215 1281 1245 1016 782 940 890 804 732 985 1353 1237 985 1369 1457 1673 1304
9 5 7 56 88 237 825 1076 1080 937 1106 866 792 884 1160 1394 1520 1184 926 742 496 1271 1768 2114 2283 2042 1386 1517 1503 1266 813 475 1053 498 438 673 499 755 567 539 942 1564 1448
122 39 27 68 59 124 910 721 837 740 508 92 279 607 932 1517 1696 1343 752 478 268 1385 1952 2084 1913 1986 1811 1346 1603 804 1328 1082 792 459 421 477 515 638 886 614 753 1298 1528
264 181 101 54 59 54 397 846 825 430 255 467 746 1032 1148 1699 1980 1475 1276 1183 1048 1667 2010 1755 1641 1984 1741 1369 1341 1211 1700 1160 908 733 423 728 848 1062 784 550 620 874 1351
264 272 281 189 188 367 543 939 1155 872 918 743 640 844 721 633 1235 1750 1616 1725 1820 1962 1913 1689 1597 1960 2016 1668 1346 1234 1104 1254 1236 913 377 535 769 953 958 1016 762 698 984
CIN
-20 -0 -0 -2 -1 -15 -15 -2 -0 -1 -2 -0 -2 -1 -5 -2 -0 -0 -11 -17 -0 -0 -4 -7 -5 -0 -0 -3 -2 -0 -9 -10 -0 -0 -0 -0 -1 -0 -3 -14 -7 -1 -0
-5 -0 -0 -3 -0 -13 -11 -0 -2 -1 -0 -0 -0 -1 -1 -8 -0 -12 -5 -5 -0 -0 -6 -2 -0 -0 -0 -0 -1 -0 -0 -0 -0 -0 -5 -4 -0 -0 -0 -14 -3 -2 -0
-10 -0 -1 -1 -0 -5 -0 -1 -1 -1 -0 -0 -0 -0 -0 -1 -0 -0 -0 -0 -0 -0 -2 -3 -10 -9 -8 -1 -0 -0 -0 -1 -2 -10 -14 -4 -1 -0 -0 -0 -5 -0 -0
-8 -1 -0 -4 -7 -10 -7 -1 -2 -4 -7 -7 -4 -0 -2 -2 -0 -0 -0 -0 -0 -0 -0 -0 -0 -0 -0 -1 -1 -2 -5 -4 -15 -13 -3 -2 -1 -5 -0 -0 -0 -0 -0
-0 -1 -0 -0 -4 -8 -3 -4 -0 -7 -13 -22 -52 -5 -0 -0 -11 -4 -1 -0 -0 -0 -0 -0 -0 -0 -6 -23 -12 -12 -13 -12 -11 -6 -0 -1 -1 -23 -0 -0 -2 -4 -2
-1 -1 -4 -0 -0 -1 -0 -14 -9 -10 -19 -0 -3 -0 -8 -6 -1 -0 -0 -10 -0 -0 -8 -1 -5 -9 -18 -15 -27 -22 -19 -18 -17 -1 -0 -4 -1 -26 -1 -4 -14 -7 -9
-1 -0 -0 -4 -0 -1 -38 -38 -15 -23 -10 -15 -0 -10 -5 -0 -0 -0 -0 -9 -10 -8 -5 -6 -9 -12 -13 -29 -22 -17 -22 -40 -6 -23 -14 -0 -3 -10 -0 -0 -0 -4 -10
-0 -0 -1 -10 -27 -58 -0 -45 -13 -0 -24 -7 -0 -0 -0 -0 -0 -0 -0 -0 -1 -0 -10 -25 -21 -19 -27 -30 -36 -32 -34 -41 -41 -85 -33 -0 -70 -53 -6 -3 -1 -4 -4
-1 -1 -0 -0 -24 -56 -13 -11 -24 -10 -3 -5 -2 -0 -0 -0 -3 -0 -0 -0 -0 -1 -10 -24 -31 -29 -42 -45 -60 -54 -46 -69 -68 -78 -40 -19 -169 -156 -93 -18 -26 -15 -16
-0 -1 -1 -2 -1 -15 -0 -0 -9 -9 -3 -4 -0 -0 -0 -1 -17 -36 -16 -0 -0 -6 -4 -10 -32 -64 -70 -67 -81 -83 -79 -29 -55 -40 -16 -58 -125 -112 -88 -42 -13 -10 -5
-1 -3 -1 -1 -1 -4 -0 -38 -36 -5 -2 -9 -6 -15 -20 -1 -10 -1 -19 -19 -12 -13 -30 -36 -58 -72 -61 -58 -65 -59 -36 -29 -83 -61 -27 -141 -98 -78 -67 -28 -21 -8 -1
-5 -4 -1 -1 -0 -1 -20 -46 -21 -0 -4 -1 -2 -12 -11 -9 -1 -2 -45 -68 -78 -82 -78 -66 -52 -43 -67 -10 -29 -56 -32 -85 -139 -105 -55 -171 -114 -64 -36 -30 -10 -2 -0
-6 -1 -4 -0 -1 -1 -0 -7 -17 -21 -2 -12 -1 -2 -15 -1 -3 -9 -11 -23 -5 -61 -8 -42 -40 -8 -6 -33 -39 -46 -40 -95 -25 -15 -96 -175 -112 -57 -22 -13 -19 -16 -0
-1 -1 -1 -1 -6 -17 -30 -16 -6 -2 -2 -1 -0 -1 -12 -2 -13 -15 -2 -11 -8 -0 -11 -7 -3 -27 -53 -60 -28 -24 -87 -20 -22 -4 -88 -163 -109 -65 -44 -31 -32 -24 -1
-1 -1 -0 -1 -2 -19 -56 -8 -6 -3 -2 -2 -0 -0 -1 -10 -14 -19 -34 -7 -10 -11 -6 -9 -21 -23 -39 -52 -35 -21 -22 -6 -52 -53 -32 -122 -114 -68 -45 -32 -29 -11 -5
-2 -1 -0 -2 -17 -14 -55 -12 -1 -0 -4 -0 -0 -10 -9 -1 -17 -32 -32 -20 -18 -6 -3 -11 -24 -25 -39 -44 -8 -50 -77 -80 -53 -58 -17 -37 -97 -69 -47 -36 -18 -8 -10
-1 -2 -0 -38 -37 -29 -42 -30 -1 -28 -7 -0 -1 -24 -37 -30 -41 -56 -36 -27 -23 -20 -24 -16 -29 -26 -34 -43 -55 -58 -61 -82 -65 -29 -8 -6 -5 -38 -42 -32 -24 -24 -33
-21 -4 -0 -0 -7 -85 -68 -76 -29 -14 -4 -0 -4 -17 -45 -68 -74 -57 -39 -36 -67 -27 -11 -5 -14 -7 -17 -41 -51 -34 -55 -55 -100 -48 -12 -3 -1 -1 -34 -34 -32 -20 -8
-26 -0 -0 -25 -0 -79 -111 -72 -21 -17 -1 -0 -6 -5 -33 -41 -80 -54 -48 -59 -57 -17 -9 -7 -11 -33 -25 -45 -55 -69 -60 -85 -134 -80 -53 -10 -0 -2 -1 -35 -37 -54 -21
-0 -0 -0 -5 -65 -68 -70 -18 -1 -1 -3 -0 -1 -0 -15 -44 -94 -70 -60 -74 -57 -34 -2 -6 -28 -43 -33 -39 -43 -56 -54 -36 -55 -105 -69 -7 -0 -0 -1 -0 -2 -12 -69
-0 -0 -0 -93 -69 -67 -21 -1 -1 -2 -0 -0 -1 -8 -11 -13 -29 -63 -55 -75 -52 -47 -7 -12 -22 -34 -17 -52 -43 -38 -47 -34 -32 -23 -16 -11 -2 -4 -0 -0 -1 -0 -10
-0 -0 -0 -92 -76 -44 -4 -1 -1 -0 -1 -1 -1 -0 -0 -18 -21 -35 -51 -33 -57 -12 -3 -4 -19 -12 -13 -25 -4 -9 -2 -12 -6 -7 -38 -24 -16 -0 -1 -0 -1 -0 -0
-86 -59 -114 -75 -56 -43 -6 -1 -5 -8 -7 -3 -2 -1 -1 -12 -13 -30 -44 -40 -56 -21 -1 -2 -2 -12 -1 -8 -36 -7 -3 -2 -1 -31 -46 -24 -39 -1 -6 -29 -12 -0 -0
-31 -66 -106 -78 -74 -50 -16 -2 -0 -5 -7 -1 -2 -1 -2 -8 -5 -17 -45 -56 -79 -8 -2 -1 -1 -2 -6 -1 -2 -19 -16 -18 -1 -1 -19 -26 -34 -33 -5 -3 -13 -2 -0
-9 -28 -64 -103 -91 -66 -29 -6 -2 -10 -2 -1 -2 -3 -5 -1 -0 -8 -14 -21 -26 -2 -7 -12 -4 -3 -1 -2 -2 -1 -6 -2 -27 -1 -2 -1 -1 -1 -5 -5 -2 -0 -0
-4 -16 -30 -80 -91 -62 -41 -19 -5 -1 -1 -2 -2 -7 -5 -6 -1 -6 -2 -6 -7 -1 -5 -4 -5 -1 -1 -4 -1 -3 -1 -1 -0 -1 -11 -12 -7 -1 -1 -1 -0 -1 -1
Wind_Speed
5 4 5 6 5 5 7 8 9 9 11 13 16 18 17 17 19 18 19 19 20 21 21 19 18 18 17 18 17 18 18 16 16 17 17 16 15 15 13 13 16 15 13
2 2 5 6 4 5 6 8 10 10 8 10 12 12 15 18 19 20 20 21 22 22 20 19 17 17 18 18 18 18 18 19 18 18 18 19 17 15 13 11 12 14 13
2 2 4 4 5 6 7 9 9 9 8 10 10 12 14 15 20 21 21 23 24 23 22 23 21 20 21 21 21 20 20 19 19 19 20 19 17 17 14 12 12 12 11
2 2 3 4 5 6 7 9 9 8 8 7 6 7 8 14 20 23 23 23 24 22 23 22 21 22 22 22 22 22 21 20 19 18 9 6 18 17 16 14 13 12 11
3 5 4 4 5 7 6 8 8 7 8 7 6 5 4 13 20 24 22 23 23 23 23 22 23 23 23 23 21 20 19 18 18 16 16 11 11 17 16 16 16 14 13
7 5 3 4 5 6 7 8 8 6 8 8 22 19 14 19 21 22 22 23 23 24 23 24 24 24 23 22 22 21 20 18 17 16 18 18 12 17 16 15 15 13 14
8 5 4 3 5 6 7 10 7 4 4 8 23 19 22 24 24 23 24 25 24 24 24 24 23 22 22 22 22 21 20 19 19 17 5 16 16 15 13 13 15 15 16
8 5 3 4 6 8 7 8 4 3 5 12 19 18 20 24 22 24 25 25 25 24 23 23 21 21 21 21 21 20 21 20 20 19 9 13 16 16 13 14 15 16 17
8 4 3 3 5 8 6 7 8 11 19 13 13 14 19 23 24 25 25 25 24 24 23 22 21 20 20 19 19 19 20 21 21 21 11 13 14 16 14 14 15 17 18
8 5 3 3 5 7 7 9 14 12 4 12 13 18 26 25 25 24 25 23 23 23 22 21 21 20 19 18 17 17 18 19 20 20 14 15 14 16 19 15 16 17 18
10 4 3 2 5 8 9 8 16 15 4 20 25 24 24 24 24 23 12 21 22 22 22 22 22 20 19 16 14 13 13 14 13 11 15 19 11 12 11 13 14 17 17
10 3 2 1 1 8 9 12 25 21 22 16 18 21 20 20 16 14 20 22 22 22 21 21 20 19 16 15 10 9 15 14 19 14 16 16 12 12 11 11 12 14 17
14 3 3 0 1 3 6 6 5 17 7 12 17 21 13 21 19 19 20 23 21 20 19 19 19 15 15 9 15 12 16 17 16 18 16 14 14 14 12 11 15 17 19
18 8 1 0 1 2 6 6 6 5 7 6 9 13 17 20 18 18 15 13 18 18 20 18 18 17 16 14 13 13 14 13 11 15 19 14 14 14 15 16 18 17 17
17 9 1 2 2 7 9 9 8 5 6 7 11 11 14 14 16 16 16 15 13 15 18 18 17 15 12 12 11 9 13 11 9 14 17 17 18 18 19 17 21 19 17
14 8 2 4 1 8 7 10 10 10 9 13 10 9 13 15 15 15 17 14 13 13 15 16 16 13 10 14 16 17 17 10 10 13 13 18 19 19 19 17 17 22 20
13 10 2 4 6 14 14 15 14 11 11 13 11 11 12 16 16 17 15 13 14 14 15 16 14 15 12 14 17 21 20 20 12 10 15 14 18 18 18 16 16 21 20
10 1 11 9 15 17 18 17 16 13 15 14 13 12 13 15 16 18 15 14 14 14 15 16 14 12 10 14 17 19 21 16 12 12 13 13 14 12 16 17 17 18 21
11 21 28 18 18 18 17 19 19 17 17 16 14 13 17 18 14 17 15 14 16 15 16 16 15 11 11 14 17 17 18 17 16 15 15 13 13 13 14 18 17 20 21
24 21 22 26 23 23 21 20 19 19 18 16 17 17 21 17 18 18 18 17 16 17 10 12 16 12 10 12 15 16 14 14 14 16 19 13 14 14 15 15 15 20 22
26 28 24 24 20 22 21 22 22 22 19 18 18 17 16 18 19 19 19 12 18 19 17 17 14 14 15 14 13 15 16 15 16 15 16 16 15 15 15 15 14 13 19
24 30 29 28 25 25 22 21 19 18 18 19 16 16 18 19 19 18 18 13 15 15 18 18 13 9 13 15 10 13 14 17 15 16 17 14 13 13 15 15 14 15 14
24 26 30 30 29 25 23 23 21 20 19 20 20 20 17 18 17 16 19 20 17 18 13 12 13 16 16 14 11 10 10 12 15 15 16 13 12 14 16 14 16 17 16
22 26 30 30 27 29 25 25 24 21 22 21 22 17 15 17 15 13 14 11 21 17 14 12 14 16 16 17 12 12 11 10 10 15 17 13 14 14 16 16 16 16 16
13 21 28 30 31 29 25 26 24 25 24 23 17 10 17 15 16 13 12 11 15 18 15 15 16 16 14 14 12 12 12 11 13 11 11 15 13 14 16 15 14 16 17
12 11 12 20 29 28 30 29 29 26 25 23 21 18 17 18 7 8 9 11 11 14 14 16 16 16 17 17 17 7 13 12 12 13 11 10 13 14 15 14 14 16 16
Wind_Direction
263 280 13 14 279 325 0 21 26 26 36 49 62 66 59 53 54 54 62 62 67 67 62 55 51 51 43 45 42 44 41 30 29 33 36 24 16 18 5 25 52 43 34
55 350 32 26 296 310 351 12 31 36 19 33 46 43 51 57 61 67 67 68 76 76 63 57 46 44 49 47 46 49 46 51 43 46 51 58 38 15 2 280 331 31 36
48 6 35 340 303 315 6 17 20 6 6 43 40 49 48 51 66 75 71 83 88 78 70 71 62 60 63 64 62 59 55 51 46 55 93 133 42 31 9 341 349 15 18
299 2 347 342 312 329 0 17 0 344 335 323 357 21 20 44 70 82 80 77 80 68 74 68 61 67 70 66 67 67 60 54 47 94 59 137 66 33 28 17 2 353 354
297 291 325 316 328 319 336 329 351 342 355 348 329 280 310 45 69 86 75 77 78 78 78 71 76 76 78 71 58 54 46 46 56 105 19 299 227 38 36 52 67 38 261
56 8 328 321 331 345 2 5 4 345 18 41 183 87 56 70 72 74 76 83 85 86 83 90 85 86 78 73 71 59 46 46 145 8 67 57 317 21 40 21 15 330 262
46 5 343 359 11 12 15 20 10 290 315 43 108 78 81 85 82 76 86 90 92 98 99 95 88 83 77 75 72 56 44 35 42 18 132 17 13 360 271 231 119 212 234
44 359 19 29 38 35 27 3 286 307 276 161 84 74 72 85 76 83 89 92 100 103 97 93 86 86 81 75 66 59 65 57 57 45 242 330 345 356 249 237 205 225 230
36 354 356 24 41 36 9 8 244 224 95 67 64 56 72 84 90 98 103 112 112 102 93 89 92 90 82 73 63 65 71 68 61 66 209 325 315 329 279 255 238 238 233
63 287 13 25 50 37 25 23 218 221 17 58 58 76 118 107 115 117 117 129 123 100 93 98 99 96 87 81 74 76 79 92 70 46 339 306 269 293 300 253 244 229 224
85 54 23 25 48 57 44 49 209 212 351 88 146 160 148 131 130 127 191 144 124 109 104 105 100 91 91 87 81 73 95 193 241 292 306 18 240 156 176 214 224 240 217
89 74 38 309 28 74 67 80 145 189 160 192 195 177 181 173 186 198 157 138 128 117 117 109 97 97 118 95 98 91 209 197 233 218 273 310 195 159 159 175 204 228 240
97 269 249 43 33 37 39 51 356 210 30 224 205 181 221 171 173 170 161 125 112 121 112 107 97 124 95 120 72 110 212 219 220 220 276 257 279 264 185 182 271 285 288
105 91 97 149 257 14 274 278 287 305 280 341 262 236 206 178 189 190 202 212 150 136 104 108 100 99 98 94 97 138 159 190 240 193 124 189 309 281 317 295 312 293 286
98 81 272 239 258 256 249 256 270 313 340 271 242 256 227 224 208 204 201 197 207 170 110 114 101 104 112 109 113 143 158 192 229 177 145 118 47 19 354 319 6 327 299
92 79 68 89 294 252 269 251 256 257 259 231 260 265 238 223 221 219 201 228 245 243 131 126 111 114 134 110 103 105 115 178 217 198 194 67 52 9 41 72 73 7 339
92 89 262 82 243 234 236 232 238 254 265 254 263 261 258 226 224 213 235 260 263 273 164 127 124 106 127 118 101 82 74 48 296 254 154 152 69 61 75 89 81 24 342
74 249 239 99 228 227 226 234 240 260 251 243 253 267 257 237 231 208 250 273 268 270 171 125 134 139 145 117 97 87 76 104 201 188 168 159 139 139 88 82 82 67 358
73 207 161 219 216 225 238 237 236 243 235 240 254 261 235 230 261 244 274 294 249 261 119 122 106 173 151 113 91 94 86 99 106 170 123 149 146 147 124 81 83 55 358
117 207 203 192 204 208 221 234 234 233 233 244 245 240 204 237 252 261 267 279 267 232 113 339 57 167 199 128 110 100 113 125 128 137 36 141 131 135 132 118 101 58 47
141 175 205 207 217 213 219 217 220 219 239 242 236 238 249 239 229 247 265 327 270 229 244 209 45 108 96 119 124 105 113 121 111 126 108 119 131 131 127 125 127 124 79
145 178 196 205 214 208 219 224 233 240 239 236 256 259 235 235 207 251 248 310 290 274 228 210 29 137 339 109 188 130 117 103 114 103 100 144 163 150 130 124 132 119 123
157 161 176 195 201 225 231 228 236 246 246 234 235 238 250 248 252 272 235 209 243 236 265 334 352 258 337 105 205 194 160 137 115 120 110 158 166 159 131 131 131 120 120
155 169 186 183 171 187 227 225 229 241 233 238 229 254 270 265 280 309 304 236 197 248 276 320 325 280 241 332 161 160 224 173 183 117 105 151 151 149 136 127 122 128 125
144 155 174 184 193 186 237 233 237 225 223 230 262 309 268 285 279 309 326 322 268 243 287 291 296 273 283 328 192 175 234 161 135 168 161 125 147 133 130 145 136 129 127
153 148 143 156 180 175 194 213 212 224 229 239 242 260 270 203 75 63 5 328 326 291 287 277 276 286 283 294 280 245 230 218 161 149 165 184 139 135 142 140 137 133 128